Content
SEND FEEDBACK

Daily
Averages
Monthly
Summary
Australia

FREMANTLE, WESTERN AUSTRALIA


Home > Oceania > Australia > Western Australia
Elevation: 16 feet     Latitude: 32 03S     Longitude: 115 45E

WEATHER
 
SELECT A DAY
Number of Records: 280,249;   Date Range: 7/1/96 - 8/10/14
 
SHARE

PRINT THIS DATA

[ ← Previous Day ]
WEATHER ALMANAC - JANUARY 31, 2013
[ Next Day → ]
[ °C ]   °F
Weather ElementAverageHighLow
Temperature78.7 °F95 °F (3:30 pm)62.6 °F (5:30 am)
Dewpoint43.2 °F52 °F (2:00 am)32 °F (3:55 pm)
Humidity30.9 %63 % (5:30 am)6 % (3:00 pm)
Barometer30.14 in30.22 in (8:00 am)30.06 in (4:30 pm)
Wind Speed16.2 mph24.2 mph (8:10 am)
Wind Gust35.7 mph (8:10 am)
Weather ElementAverage
Visibility16.2 mi
Wind DirectionESE (95.8 °)

Weather ElementTotal
Precipitation---
Cooling Degree Days13.8 (Base 65)
Growing Degree Days28.8 (Base 50)
Averaged from 71 records on January 31, 2013
WEATHER CONDITIONS BREAKOUT
WIND DIRECTION BREAKOUT
WEATHER BY HOUR - JANUARY 31, 2013
[ °C ]   °F
Local TimeTemperatureDewpointHumidityBarometerVisibilityWind DirectionWind SpeedGust SpeedPrecipitationEventsConditions
12:00 AM78.8 °F48.2 °F34 %30.09 inESE (120°)17.3 mphClear
12:11 AM78.8 °F48.2 °F34 %30.09 inESE (120°)18.4 mph29.9 mphClear
12:30 AM77.0 °F50.0 °F39 %30.09 inESE (110°)17.3 mph33.4 mphClear
1:00 AM77.0 °F51.8 °F41 %30.09 inESE (110°)18.4 mph29.9 mphClear
1:38 AM73.4 °F51.8 °F47 %30.09 inEast (100°)17.3 mph32.2 mphClear
2:00 AM72.0 °F52.0 °F38 %30.12 inESE (110°)20.7 mph
2:00 AM71.6 °F51.8 °F50 %30.12 inESE (110°)20.7 mphClear
2:06 AM71.6 °F51.8 °F50 %30.12 inESE (110°)19.6 mph31.1 mphClear
2:37 AM69.8 °F51.8 °F53 %30.12 inESE (110°)18.4 mph29.9 mphClear
3:00 AM69.0 °F51.0 °F42 %30.14 in19.0 miESE (110°)13.8 mphPartly Cloudy
3:00 AM68.0 °F51.8 °F56 %30.12 inESE (110°)13.8 mphClear
3:30 AM66.2 °F51.8 °F60 %30.15 inESE (110°)12.7 mphClear
4:00 AM66.2 °F50.0 °F56 %30.12 inSouth (190°)6.9 mphClear
4:30 AM64.4 °F50.0 °F59 %30.15 inENE (70°)4.6 mphClear
5:00 AM64.0 °F50.0 °F50 %30.18 inEast (80°)8.1 mph
5:00 AM64.4 °F50.0 °F59 %30.15 inEast (80°)8.1 mphClear
5:30 AM62.6 °F50.0 °F63 %30.18 inENE (60°)5.8 mphClear
5:49 AM62.6 °F50.0 °F63 %30.18 inENE (60°)19.6 mphClear
6:00 AM63.0 °F50.0 °F52 %30.20 in19.0 miENE (60°)16.1 mphPartly Cloudy
6:05 AM62.6 °F50.0 °F63 %30.18 inNE (50°)17.3 mph32.2 mphClear
6:30 AM64.4 °F50.0 °F59 %30.18 inEast (90°)18.4 mphClear
7:00 AM64.4 °F50.0 °F59 %30.21 in6.2 miENE (60°)16.1 mphPartly Cloudy
7:36 AM68.0 °F50.0 °F52 %30.21 in6.2 miENE (60°)18.4 mph29.9 mphPartly Cloudy
8:00 AM68.0 °F49.0 °F40 %30.22 inENE (60°)20.7 mph
8:00 AM68.0 °F50.0 °F52 %30.21 inENE (60°)20.7 mphClear
8:10 AM68.0 °F48.2 °F49 %30.21 inENE (70°)24.2 mph35.7 mphClear
8:37 AM71.6 °F48.2 °F43 %30.21 inEast (80°)24.2 mph35.7 mphClear
9:00 AM73.0 °F48.0 °F30 %30.21 in19.0 miEast (80°)21.9 mphPartly Cloudy
9:00 AM73.4 °F48.2 °F41 %30.21 inEast (80°)21.9 mphClear
9:01 AM73.4 °F48.2 °F41 %30.21 inENE (70°)21.9 mph33.4 mphClear
9:36 AM75.2 °F46.4 °F36 %30.21 inEast (80°)18.4 mph29.9 mphClear
10:00 AM77.0 °F44.6 °F32 %30.21 inESE (110°)21.9 mphClear
10:30 AM78.8 °F44.6 °F30 %30.18 inEast (80°)18.4 mphClear
11:00 AM81.0 °F44.0 °F17 %30.19 inEast (90°)19.6 mph
11:00 AM80.6 °F44.6 °F28 %30.18 inEast (90°)19.6 mph31.1 mphClear
11:30 AM82.4 °F44.6 °F26 %30.18 inEast (100°)18.4 mphClear
12:00 PM85.0 °F43.0 °F14 %30.17 in19.0 miEast (100°)15.0 mphPartly Cloudy
12:00 PM84.2 °F42.8 °F23 %30.15 inEast (100°)15.0 mphClear
12:30 PM87.8 °F44.6 °F22 %30.15 inESE (110°)15.0 mphClear
1:00 PM87.8 °F41.0 °F19 %30.12 inESE (110°)18.4 mphClear
1:30 PM89.6 °F39.2 °F17 %30.12 inNE (50°)10.4 mphClear
2:00 PM91.0 °F37.0 °F8 %30.12 inESE (110°)16.1 mph
2:00 PM91.4 °F37.4 °F15 %30.09 inESE (110°)16.1 mphClear
2:30 PM91.4 °F37.4 °F15 %30.09 inEast (100°)13.8 mphClear
3:00 PM93.2 °F33.8 °F12 %30.09 inEast (80°)15.0 mphClear
3:00 PM93.0 °F34.0 °F6 %30.10 in19.0 miEast (80°)15.0 mphPartly Cloudy
3:30 PM95.0 °F33.8 °F12 %30.09 inESE (120°)19.6 mphClear
3:55 PM93.2 °F32.0 °F11 %30.09 inEast (80°)17.3 mph29.9 mphClear
4:00 PM93.2 °F33.8 °F12 %30.09 inEast (80°)18.4 mph29.9 mphClear
4:30 PM93.2 °F33.8 °F12 %30.06 inESE (110°)17.3 mphClear
5:00 PM92.0 °F36.0 °F7 %30.09 inESE (110°)18.4 mph
5:00 PM91.4 °F37.4 °F15 %30.06 inESE (110°)18.4 mphClear
5:30 PM91.4 °F35.6 °F14 %30.06 inEast (100°)15.0 mphClear
6:00 PM91.4 °F35.6 °F14 %30.06 inESE (110°)17.3 mphClear
6:00 PM90.0 °F35.0 °F7 %30.09 in19.0 miESE (110°)17.3 mphPartly Cloudy
6:30 PM89.6 °F32.0 °F13 %30.09 inESE (120°)18.4 mphClear
7:00 PM87.8 °F35.6 °F16 %30.09 inESE (120°)15.0 mphClear
7:30 PM86.0 °F33.8 °F15 %30.09 inESE (110°)11.5 mphClear
8:00 PM84.0 °F36.0 °F10 %30.12 inESE (110°)10.4 mph
8:00 PM84.2 °F35.6 °F18 %30.12 inESE (110°)10.4 mphClear
8:30 PM82.4 °F37.4 °F20 %30.12 inESE (110°)9.2 mphClear
9:00 PM82.4 °F39.2 °F21 %30.12 inESE (110°)10.4 mphClear
9:00 PM82.0 °F39.0 °F13 %30.14 in19.0 miESE (110°)10.4 mphPartly Cloudy
9:30 PM80.6 °F39.2 °F23 %30.12 inEast (100°)11.5 mphClear
10:00 PM80.6 °F37.4 °F21 %30.12 inEast (90°)12.7 mphClear
10:30 PM80.6 °F37.4 °F21 %30.15 inEast (100°)13.8 mphClear
10:53 PM78.8 °F37.4 °F23 %30.12 inEast (100°)17.3 mph28.8 mphClear
11:00 PM79.0 °F38.0 °F13 %30.14 inEast (100°)17.3 mph
11:00 PM78.8 °F37.4 °F23 %30.12 inEast (100°)17.3 mph28.8 mphClear
11:30 PM77.0 °F37.4 °F24 %30.12 inEast (90°)19.6 mphClear
11:44 PM77.0 °F37.4 °F24 %30.12 inEast (100°)17.3 mph28.8 mphClear
Hourly data recorded from YPJT, located miles away from Fremantle, Western Australia







STORIES FROM OUR PARTNERS